Cloud_Cover
99 70 100 17 5 0 0 0 0 0 0 0 0 0 0 0 0 4 5 4 5 5 5 24 5 0 0 0 0 10 30 9 98 100 31 25 5 5 6 6 5 4 4
100 86 90 99 5 0 0 0 0 0 0 4 0 0 1 4 13 56 64 71 35 5 5 5 5 1 4 0 3 21 99 100 100 100 100 100 93 11 16 5 5 4 5
93 45 100 100 95 33 14 39 45 35 7 5 5 4 5 5 5 4 3 3 5 5 4 5 3 0 0 2 5 9 41 96 66 96 100 100 100 100 76 38 5 7 36
71 0 75 100 100 100 100 100 100 100 53 25 5 11 51 7 5 1 1 0 0 0 0 0 0 4 5 5 5 18 17 5 13 14 53 94 100 100 100 99 100 99 86
66 30 26 100 100 100 100 100 86 63 66 100 98 28 5 5 0 0 0 0 0 0 1 5 5 5 6 5 5 16 11 5 5 1 1 2 4 5 65 80 29 40 54
86 5 31 79 100 36 9 12 26 79 53 22 4 5 4 0 0 0 0 0 0 2 5 5 5 5 5 5 5 5 5 5 5 5 5 5 65 76 80 95 83 98 44
100 5 5 1 2 0 0 0 0 0 0 0 0 0 0 0 0 0 2 5 5 5 5 5 5 5 5 5 5 5 5 5 4 5 4 5 7 3 9 50 42 64 8
93 41 5 2 0 0 0 0 0 0 0 0 0 0 0 0 1 5 5 5 5 5 5 5 5 5 5 5 5 5 5 5 5 5 5 2 3 1 0 21 43 59 1
5 5 5 5 0 0 0 0 0 0 0 0 0 0 0 1 5 5 35 26 21 20 5 5 20 9 5 5 5 5 5 1 0 0 0 0 0 0 6 39 94 100 67
6 5 3 0 4 1 0 4 5 33 20 5 4 4 7 39 8 5 5 5 15 17 40 8 5 5 5 5 5 0 0 0 0 0 0 0 0 14 86 80 30 13 50
5 5 5 5 10 5 19 95 93 73 64 29 53 78 48 7 21 52 55 15 5 5 4 4 5 5 4 1 0 0 0 0 0 0 3 15 3 2 2 2 1 3 5
5 5 5 64 97 98 100 100 100 100 81 98 51 5 57 64 41 6 5 5 5 2 5 5 5 0 0 0 0 0 0 0 0 3 5 0 0 0 0 0 0 0 5
5 5 5 12 100 100 100 100 100 91 44 20 91 31 8 5 5 5 5 5 8 16 13 0 0 0 0 0 0 0 0 0 0 5 0 0 0 0 0 1 4 4 6
5 5 46 100 100 99 100 91 25 5 12 73 65 83 71 47 21 5 5 5 4 0 0 0 0 0 0 0 0 0 0 0 0 0 0 4 3 0 5 5 5 6 93
47 71 100 100 87 98 55 37 21 8 32 42 77 98 52 70 10 5 5 5 0 0 0 0 0 0 0 0 0 0 0 0 0 0 0 4 5 5 5 79 31 97 98
100 100 100 98 97 37 100 69 71 95 68 25 5 20 83 79 5 5 5 0 0 0 0 0 0 0 0 0 0 0 4 3 3 4 2 0 4 5 6 80 98 100 100
100 99 87 47 54 94 28 27 43 51 26 59 93 55 5 5 5 5 5 0 0 0 0 0 0 0 0 0 0 5 5 5 5 5 5 5 5 24 14 28 88 62 74
62 52 36 32 55 52 21 50 98 57 43 8 15 5 5 5 5 5 0 0 0 0 0 2 0 0 0 0 5 5 5 5 5 5 5 83 90 15 100 96 72 54 30
86 7 50 50 64 17 98 78 52 42 5 51 83 5 5 5 0 0 0 3 3 5 0 0 0 0 0 0 5 65 34 5 5 5 6 100 38 75 100 100 95 66 17
4 5 5 6 97 100 55 5 69 61 99 96 7 5 5 0 1 2 5 3 4 0 0 0 0 0 0 3 53 94 100 85 29 13 90 5 56 100 100 100 100 98 5
5 5 7 8 44 86 100 5 5 53 72 5 4 0 3 5 4 5 4 0 0 0 0 0 0 0 5 5 69 100 100 86 100 99 5 5 77 100 96 99 96 98 100
26 7 28 20 100 99 10 5 5 23 3 0 0 5 5 2 5 5 0 0 0 0 0 0 2 5 81 46 75 100 100 100 100 93 5 65 100 86 6 59 99 100 100
61 37 45 18 89 6 5 5 5 0 0 1 5 5 5 5 5 0 0 0 0 0 0 5 88 99 86 63 5 50 98 99 100 44 90 70 31 5 5 72 100 92 87
6 67 97 79 62 5 5 1 0 1 5 5 2 5 5 5 0 0 0 0 0 0 7 100 100 99 96 93 10 94 93 87 41 95 99 18 5 5 81 76 67 96 100
58 38 48 19 6 4 0 2 5 5 4 1 0 5 5 0 0 0 0 0 0 28 99 100 100 99 96 81 100 100 100 99 100 100 6 6 84 100 99 100 100 100 100
10 5 9 5 5 5 4 2 2 2 1 5 5 5 1 0 0 0 0 2 5 47 15 72 100 100 100 100 100 100 100 100 100 68 20 100 100 100 100 100 100 100 100